Location: Unnamed
(47.6264°N, 122.3366°W)
Time: 22:52:11
(UTC-07:00)

ELYUSIUM/LOWER FREE FLYE - Pass Details

Date: 08 August 2020
Orbit: 571 x 589 km, 97.7° (Epoch: 21 September)

Event Time Altitude Azimuth Distance (km) Brightness Sun altitude
Exits shadow 00:21:00 11° 260° (W) 1,804 ? -25.3°
Maximum altitude 00:21:47 12° 272° (W) 1,775 ? -25.3°
Drops below altitude 10° 00:23:16 10° 293° (WNW) 1,887 ? -25.4°
Sets 00:26:51 0° 327° (NNW) 2,797 ? -25.5°
